Location: Biltmore Gardens
(41.6070°N, 83.4666°W)
Time: 14:27:45
(UTC+00:00)

Cosmos 1992 Rocket - Pass Details

Date: 14 July 2020
Orbit: 758 x 766 km, 74.0° (Epoch: 05 August)

Event Time Altitude Azimuth Distance (km) Brightness Sun altitude
Rises 06:09:02 0° 341° (NNW) 3,243 8.2 -26.4°
Reaches altitude 10° 06:11:25 10° 342° (NNW) 2,313 7.3 -26.4°
Maximum altitude 06:16:41 81° 70° (ENE) 780 3.9 -26.2°
Enters shadow 06:16:57 78° 115° (ESE) 787 3.9 -26.2°
